Location: ????????
(55.6189°N, 38.3031°E)
Time: 20:32:29
(UTC+00:00)

CZ-4C R/B - Pass Details

Date: 15 November 2019
Orbit: 650 x 1352 km, 63.4° (Epoch: 05 December)

Event Time Altitude Azimuth Distance (km) Brightness Sun altitude
Exits shadow 00:42:17 44° 60° (ENE) 1,244 3.3 -35.8°
Drops below altitude 10° 00:46:41 10° 52° (NE) 2,778 5.6 -35.2°
Sets 00:49:33 0° 52° (NE) 3,846 6.5 -34.8°
